Regional Weather Roundup
Issued by NWS Newport/Morehead, NC

Current Version | Previous Version | Text Only | Print | Product List | Glossary Off
Versions: 1 2 3 4 5 6 7 8 9 10 11 12 13 14 15 16 17 18 19 20 21 22 23 24 25 26 27 28 29 30 31 32 33 34 35 36 37 38 39 40 41 42 43 44 45 46 47 48 49 50
000 ASUS42 KMHX 240925 RWRMHX WEATHER ROUNDUP FOR EASTERN NORTH CAROLINA NATIONAL WEATHER SERVICE NEWPORT/MOREHEAD CITY NC 400 AM EST SAT FEB 24 2018 NOTE: "FAIR" INDICATES FEW OR NO CLOUDS BELOW 12,000 FEET WITH NO SIGNIFICANT WEATHER AND/OR OBSTRUCTIONS TO VISIBILITY NCZ015>017-031-032-045>047-102-103-241000- NORTH COAST CITY SKY/WX TMP DP RH WIND PRES REMARKS EDENTON CLOUDY 63 63 100 S6 30.25S ELIZABETH CITY CLOUDY 61 61 100 SW9 30.23F FOG KITTY HAWK FAIR N/A N/A N/A SW3 30.23F MANTEO FAIR 56 56 100 SW8 30.24F $$ NCZ045>047-081-094-103-104-241000- CENTRAL COAST CITY SKY/WX TMP DP RH WIND PRES REMARKS FRISCO FAIR 65 64 97 W8 30.26F $$ NCZ095-097-098-100-101-241000- SOUTHERN COAST CITY SKY/WX TMP DP RH WIND PRES REMARKS BEAUFORT CLOUDY 66 64 93 S7 30.26F CEDAR ISLAND NOT AVBL JACKSONVILLE CLOUDY 64 63 96 SW6 30.25F PINEY ISLAND NOT AVBL WILMINGTON CLOUDY 64 63 96 S6 30.26F $$ NCZ011>013-027>030-043-044-078>080-089-090>093-098-241000- COASTAL PLAIN CITY SKY/WX TMP DP RH WIND PRES REMARKS AHOSKIE CLOUDY 60 60 100 SW3 30.23S CLINTON CLOUDY 62 62 100 S5 30.26F VSB 3/4 ELIZABETHTOWN NOT AVBL GOLDSBORO CLOUDY 61 61 100 SW5 30.23F GREENVILLE MOCLDY 61 61 100 SW5 30.25F HAVELOCK NOT AVBL KENANSVILLE CLOUDY 59 59 100 CALM 30.26S FOG KINSTON FAIR 59 59 99 S5 30.25F FOG NEW BERN FAIR 60 60 100 SW6 30.26F RICHLANDS FAIR 61 61 100 SW6 30.26F ROCKY MOUNT CLOUDY 61 61 100 SW8 30.23F WASHINGTON MOCLDY 62 61 95 SW5 30.26S WHITEVILLE MOCLDY 61 61 98 SW3 30.26S $$ AMZ130-135-150-152-154-156-158-170-250-252-270-ANZ085-086-088-633-658-670-241000- MARINE OBSERVATIONS STATION/POSITION TIME TEMP WIND PRES WAVE SWELL AIR SEA DIR/SP/G HT/PER HT/PER (UTC) (F) (DEG/KT/KT) (MB) (FT/S) (FT/S) CHESAPEAKE LIGHT NOT AVBL 64 E VA BEACH 0850 50 49 220/ 4/ 6 1024.2 4/ 9 3/ 9 DUCK 0900 57 46 220/ 8/ 12 1023.4 2 E DUCK 0900 46 N/A 3/ 8 2/11 OREGON INLET 0848 54 55 180/ 7/ 9 1024.2 13E OREGON INLT 0848 49 N/A 5/ 9 5/ 9 HATTERAS CG 0900 63 61 240/ 6/ 8 1024.5 DIAMOND BUOY 0910 72 73 250/ 14/ 17 1024.8 CAPE LOOKOUT 0900 240/ 5/ 6 1025.1 BEAUFORT LAB 0900 64 60 210/ 4/ 7 1024.9 30 SE NEW RVR IN 0808 71 69 230/ 8/ 12 1025.4 30 SE NEW RVR IN 0900 69 N/A 4/ 9 2/11 27 SE WRIGHTSVLE 0808 69 69 210/ 12/ 17 1025.3 5 SE WRIGHTSVLE NOT AVBL 225 S CAPE HAT 0850 71 73 180/ 10/ 12 1026.2 5/ 9 5/ 9 41 SE CHARLESTON 0910 69 68 140/ 4/ 6 1024.3 $$

USA.gov is the U.S. government's official web portal to all federal, state and local government web resources and services.